Time,TemperatureF,DewpointF,PressureIn,WindDirection,WindDirectionDegrees,WindSpeedMPH,WindSpeedGustMPH,Humidity,HourlyPrecipIn,Conditions,Clouds,dailyrainin,SoftwareType,DateUTC
2013-03-30 13:00:00,55.0,39.0,-100.00,North,0,14.0,27.0,54,-99.99,,,-99.99,,2013-03-30 18:00:00,
2013-03-30 13:53:00,55.0,39.0,-100.00,North,0,14.0,27.0,54,-99.99,,,-99.99,,2013-03-30 18:53:00,
2013-03-30 14:13:00,55.0,38.0,-100.00,North,0,19.0,26.0,52,-99.99,,,-99.99,,2013-03-30 19:13:00,
2013-03-30 14:22:00,54.0,37.0,-100.00,North,0,22.0,30.0,51,-99.99,,,-99.99,,2013-03-30 19:22:00,
2013-03-30 14:32:00,54.0,37.0,-100.00,North,0,22.0,30.0,51,-99.99,,,-99.99,,2013-03-30 19:32:00,
2013-03-30 14:42:00,54.0,37.0,-100.00,North,0,22.0,30.0,51,-99.99,,,-99.99,,2013-03-30 19:42:00,
2013-03-30 14:53:00,54.0,38.0,-100.00,North,0,21.0,30.0,54,-99.99,,,-99.99,,2013-03-30 19:53:00,
2013-03-30 15:02:00,54.0,38.0,-100.00,North,0,21.0,30.0,54,-99.99,,,-99.99,,2013-03-30 20:02:00,
2013-03-30 15:12:00,54.0,38.0,-100.00,North,0,16.0,29.0,54,-99.99,,,-99.99,,2013-03-30 20:12:00,
2013-03-30 15:22:00,54.0,38.0,-100.00,North,5,14.0,22.0,55,-99.99,,,-99.99,,2013-03-30 20:22:00,
2013-03-30 15:32:00,54.0,38.0,-100.00,North,5,14.0,22.0,55,-99.99,,,-99.99,,2013-03-30 20:32:00,
2013-03-30 15:42:00,55.0,38.0,-100.00,North,5,19.0,25.0,53,-99.99,,,-99.99,,2013-03-30 20:42:00,
2013-03-30 15:53:00,56.0,38.0,-100.00,North,0,19.0,28.0,52,-99.99,,,-99.99,,2013-03-30 20:53:00,
2013-03-30 16:02:00,56.0,38.0,-100.00,North,0,19.0,28.0,52,-99.99,,,-99.99,,2013-03-30 21:02:00,
2013-03-30 16:12:00,55.0,39.0,-100.00,North,5,21.0,28.0,54,-99.99,,,-99.99,,2013-03-30 21:12:00,
2013-03-30 16:22:00,57.0,39.0,-100.00,North,5,21.0,32.0,51,-99.99,,,-99.99,,2013-03-30 21:22:00,
2013-03-30 16:34:00,57.0,39.0,-100.00,North,5,21.0,32.0,51,-99.99,,,-99.99,,2013-03-30 21:34:00,
2013-03-30 16:43:00,56.0,39.0,-100.00,North,5,20.0,27.0,53,-99.99,,,-99.99,,2013-03-30 21:43:00,
2013-03-30 16:53:00,55.0,39.0,-100.00,North,0,18.0,26.0,54,-99.99,,,-99.99,,2013-03-30 21:53:00,
2013-03-30 17:03:00,55.0,39.0,-100.00,North,0,18.0,26.0,54,-99.99,,,-99.99,,2013-03-30 22:03:00,
2013-03-30 17:13:00,55.0,40.0,-100.00,North,5,14.0,19.0,56,-99.99,,,-99.99,,2013-03-30 22:13:00,
2013-03-30 17:23:00,54.0,40.0,-100.00,North,0,11.0,15.0,58,-99.99,,,-99.99,,2013-03-30 22:23:00,
2013-03-30 17:33:00,54.0,40.0,-100.00,North,0,11.0,15.0,58,-99.99,,,-99.99,,2013-03-30 22:33:00,
2013-03-30 17:43:00,55.0,40.0,-100.00,North,0,11.0,18.0,57,-99.99,,,-99.99,,2013-03-30 22:43:00,
2013-03-30 17:53:00,55.0,39.0,-100.00,North,5,14.0,18.0,55,-99.99,,,-99.99,,2013-03-30 22:53:00,
2013-03-30 18:02:00,55.0,39.0,-100.00,North,5,14.0,18.0,55,-99.99,,,-99.99,,2013-03-30 23:02:00,
2013-03-30 18:12:00,54.0,38.0,-100.00,North,5,16.0,28.0,55,-99.99,,,-99.99,,2013-03-30 23:12:00,
2013-03-30 18:22:00,53.0,38.0,-100.00,North,5,16.0,24.0,55,-99.99,,,-99.99,,2013-03-30 23:22:00,
2013-03-30 18:32:00,53.0,38.0,-100.00,North,5,16.0,24.0,55,-99.99,,,-99.99,,2013-03-30 23:32:00,
2013-03-30 18:42:00,53.0,38.0,-100.00,North,5,13.0,17.0,57,-99.99,,,-99.99,,2013-03-30 23:42:00,
2013-03-30 18:53:00,52.0,38.0,-100.00,North,5,11.0,16.0,58,-99.99,,,-99.99,,2013-03-30 23:53:00,
2013-03-30 19:02:00,52.0,38.0,-100.00,North,5,11.0,16.0,58,-99.99,,,-99.99,,2013-03-31 00:02:00,
2013-03-30 19:12:00,52.0,38.0,-100.00,North,0,10.0,15.0,60,-99.99,,,-99.99,,2013-03-31 00:12:00,
2013-03-30 19:22:00,51.0,39.0,-100.00,North,5,6.0,13.0,62,-99.99,,,-99.99,,2013-03-31 00:22:00,
2013-03-30 19:32:00,51.0,39.0,-100.00,North,5,6.0,13.0,62,-99.99,,,-99.99,,2013-03-31 00:32:00,
2013-03-30 19:42:00,50.0,39.0,-100.00,North,0,8.0,14.0,66,-99.99,,,-99.99,,2013-03-31 00:42:00,
2013-03-30 19:53:00,50.0,40.0,-100.00,North,0,10.0,13.0,68,-99.99,,,-99.99,,2013-03-31 00:53:00,
2013-03-30 20:02:00,50.0,40.0,-100.00,North,0,10.0,13.0,68,-99.99,,,-99.99,,2013-03-31 01:02:00,
2013-03-30 20:12:00,50.0,40.0,-100.00,North,5,10.0,14.0,68,-99.99,,,-99.99,,2013-03-31 01:12:00,
2013-03-30 20:22:00,49.0,40.0,-100.00,North,5,6.0,13.0,69,-99.99,,,-99.99,,2013-03-31 01:22:00,
2013-03-30 20:32:00,49.0,40.0,-100.00,North,5,6.0,13.0,69,-99.99,,,-99.99,,2013-03-31 01:32:00,
2013-03-30 20:42:00,48.0,40.0,-100.00,North,5,6.0,10.0,73,-99.99,,,-99.99,,2013-03-31 01:42:00,
2013-03-30 20:53:00,48.0,40.0,-100.00,North,5,5.0,7.0,75,-99.99,,,-99.99,,2013-03-31 01:53:00,
2013-03-30 21:02:00,48.0,40.0,-100.00,North,5,5.0,7.0,75,-99.99,,,-99.99,,2013-03-31 02:02:00,
2013-03-30 21:13:00,48.0,41.0,-100.00,North,5,5.0,11.0,77,-99.99,,,-99.99,,2013-03-31 02:13:00,
2013-03-30 21:22:00,47.0,41.0,-100.00,North,0,4.0,8.0,80,-99.99,,,-99.99,,2013-03-31 02:22:00,
2013-03-30 21:32:00,47.0,41.0,-100.00,North,0,4.0,8.0,80,-99.99,,,-99.99,,2013-03-31 02:32:00,
2013-03-30 21:43:00,46.0,41.0,-100.00,North,0,7.0,10.0,82,-99.99,,,-99.99,,2013-03-31 02:43:00,
2013-03-30 21:52:00,46.0,41.0,-100.00,North,0,7.0,10.0,82,-99.99,,,-99.99,,2013-03-31 02:52:00,
2013-03-30 22:02:00,47.0,41.0,-100.00,North,0,7.0,11.0,81,-99.99,,,-99.99,,2013-03-31 03:02:00,
2013-03-30 22:12:00,47.0,41.0,-100.00,North,0,8.0,11.0,80,-99.99,,,-99.99,,2013-03-31 03:12:00,
2013-03-30 22:22:00,47.0,41.0,-100.00,North,0,8.0,12.0,81,-99.99,,,-99.99,,2013-03-31 03:22:00,
2013-03-30 22:33:00,47.0,41.0,-100.00,North,0,8.0,12.0,81,-99.99,,,-99.99,,2013-03-31 03:33:00,
2013-03-30 22:43:00,47.0,41.0,-100.00,North,0,8.0,11.0,81,-99.99,,,-99.99,,2013-03-31 03:43:00,
2013-03-30 22:54:00,47.0,41.0,-100.00,North,0,8.0,10.0,81,-99.99,,,-99.99,,2013-03-31 03:54:00,
2013-03-30 23:03:00,47.0,-99.9,-100.00,North,0,8.0,10.0,81,-99.99,,,-99.99,,2013-03-31 04:03:00,
2013-03-30 23:13:00,47.0,41.0,-100.00,North,0,9.0,11.0,80,-99.99,,,-99.99,,2013-03-31 04:13:00,
2013-03-30 23:23:00,47.0,41.0,-100.00,North,0,12.0,18.0,80,-99.99,,,-99.99,,2013-03-31 04:23:00,
2013-03-30 23:32:00,47.0,41.0,-100.00,North,0,12.0,18.0,80,-99.99,,,-99.99,,2013-03-31 04:32:00,
2013-03-30 23:42:00,47.0,42.0,-100.00,North,0,10.0,19.0,82,-99.99,,,-99.99,,2013-03-31 04:42:00,
2013-03-30 23:53:00,46.0,42.0,-100.00,North,0,9.0,14.0,84,-99.99,,,-99.99,,2013-03-31 04:53:00,